Time,TemperatureF,DewpointF,PressureIn,WindDirection,WindDirectionDegrees,WindSpeedMPH,WindSpeedGustMPH,Humidity,HourlyPrecipIn,Conditions,Clouds,dailyrainin,SolarRadiationWatts/m^2,SoftwareType,DateUTC
2013-01-06 00:00:00,65.1,53.9,30.02,ESE,111,7.0,20.0,67,0.00,RA,SCT,0.00,0.0,WeatherDisplay:10.37,2013-01-06 10:00:00,
2013-01-06 00:10:00,65.0,53.7,30.02,East,101,8.0,23.0,67,0.00,CLR,SCT,0.00,0.0,WeatherDisplay:10.37,2013-01-06 10:10:00,
2013-01-06 00:20:00,65.1,53.9,30.02,ESE,122,7.0,18.0,67,0.00,CLR,SCT,0.00,0.0,WeatherDisplay:10.37,2013-01-06 10:20:00,
2013-01-06 00:30:00,65.2,54.0,30.02,ESE,118,10.0,20.0,67,0.00,CLR,SCT,0.00,0.0,WeatherDisplay:10.37,2013-01-06 10:30:00,
2013-01-06 00:40:00,65.3,53.7,30.01,ESE,112,12.0,17.0,66,0.00,CLR,SCT,0.00,0.0,WeatherDisplay:10.37,2013-01-06 10:40:00,
2013-01-06 00:50:00,65.5,53.4,30.01,ESE,123,5.0,20.0,65,0.00,CLR,SCT,0.00,0.0,WeatherDisplay:10.37,2013-01-06 10:50:00,
2013-01-06 01:00:00,65.5,54.2,30.01,ESE,119,10.0,27.0,67,0.00,CLR,SCT,0.00,0.0,WeatherDisplay:10.37,2013-01-06 11:00:00,
2013-01-06 01:10:00,65.7,54.5,30.01,ESE,110,6.0,17.0,67,0.00,CLR,SCT,0.00,0.0,WeatherDisplay:10.37,2013-01-06 11:10:00,
2013-01-06 01:20:00,65.7,54.0,30.02,East,100,6.0,16.0,66,0.00,CLR,SCT,0.00,0.0,WeatherDisplay:10.37,2013-01-06 11:20:00,
2013-01-06 01:30:00,65.6,53.9,30.02,ESE,108,2.0,13.0,66,0.00,CLR,SCT,0.00,0.0,WeatherDisplay:10.37,2013-01-06 11:30:00,
2013-01-06 01:40:00,65.5,54.6,30.01,ESE,120,8.0,23.0,68,0.00,CLR,SCT,0.00,0.0,WeatherDisplay:10.37,2013-01-06 11:40:00,
2013-01-06 01:50:00,65.6,55.1,30.00,SE,126,12.0,22.0,69,0.00,CLR,SCT,0.00,0.0,WeatherDisplay:10.37,2013-01-06 11:50:00,
2013-01-06 02:00:00,65.8,55.3,30.00,ESE,111,10.0,20.0,69,0.00,CLR,SCT,0.00,0.0,WeatherDisplay:10.37,2013-01-06 12:00:00,
2013-01-06 02:10:00,65.8,54.9,29.99,SE,125,8.0,29.0,68,0.00,CLR,SCT,0.00,0.0,WeatherDisplay:10.37,2013-01-06 12:10:00,
2013-01-06 02:20:00,65.8,54.5,30.00,ESE,117,10.0,17.0,67,0.00,CLR,SCT,0.00,0.0,WeatherDisplay:10.37,2013-01-06 12:20:00,
2013-01-06 02:30:00,65.8,54.5,30.00,SE,140,6.0,24.0,67,0.00,CLR,SCT,0.00,0.0,WeatherDisplay:10.37,2013-01-06 12:30:00,
2013-01-06 02:40:00,65.8,54.1,29.99,ESE,109,5.0,12.0,66,0.00,CLR,SCT,0.00,0.0,WeatherDisplay:10.37,2013-01-06 12:40:00,
2013-01-06 02:50:00,65.6,54.3,29.99,ESE,117,5.0,12.0,67,0.00,CLR,SCT,0.00,0.0,WeatherDisplay:10.37,2013-01-06 12:50:00,
2013-01-06 03:00:00,65.7,54.8,30.00,ESE,110,7.0,15.0,68,0.00,CLR,SCT,0.00,0.0,WeatherDisplay:10.37,2013-01-06 13:00:00,
2013-01-06 03:10:00,65.5,55.1,30.00,ESE,109,1.0,17.0,69,0.00,CLR,SCT,0.00,0.0,WeatherDisplay:10.37,2013-01-06 13:10:00,
2013-01-06 03:20:00,65.4,55.0,30.00,East,80,5.0,16.0,69,0.00,CLR,SCT,0.00,0.0,WeatherDisplay:10.37,2013-01-06 13:20:00,
2013-01-06 03:30:00,65.8,55.3,30.00,ESE,116,3.0,16.0,69,0.00,CLR,SCT,0.00,0.0,WeatherDisplay:10.37,2013-01-06 13:30:00,
2013-01-06 03:40:00,65.7,55.6,30.00,ESE,108,6.0,15.0,70,0.00,CLR,SCT,0.00,0.0,WeatherDisplay:10.37,2013-01-06 13:40:00,
2013-01-06 03:50:00,65.6,56.7,30.00,ESE,116,5.0,17.0,73,0.00,CLR,SCT,0.00,0.0,WeatherDisplay:10.37,2013-01-06 13:50:00,
2013-01-06 04:00:00,65.2,58.2,30.00,ESE,107,3.0,16.0,78,0.00,CLR,SCT,0.00,0.0,WeatherDisplay:10.37,2013-01-06 14:00:00,
2013-01-06 04:10:00,65.2,58.2,30.00,ESE,119,6.0,16.0,78,0.00,CLR,SCT,0.00,0.0,WeatherDisplay:10.37,2013-01-06 14:10:00,
2013-01-06 04:20:00,65.3,57.9,30.00,ESE,123,8.0,15.0,77,0.00,CLR,SCT,0.00,0.0,WeatherDisplay:10.37,2013-01-06 14:20:00,
2013-01-06 04:30:00,65.6,58.2,30.00,ESE,112,3.0,16.0,77,0.00,CLR,SCT,0.00,0.0,WeatherDisplay:10.37,2013-01-06 14:30:00,
2013-01-06 04:40:00,65.4,57.6,30.00,East,100,6.0,14.0,76,0.00,CLR,SCT,0.00,0.0,WeatherDisplay:10.37,2013-01-06 14:40:00,
2013-01-06 04:50:00,65.3,56.0,30.00,ESE,108,3.0,12.0,72,0.00,CLR,SCT,0.00,0.0,WeatherDisplay:10.37,2013-01-06 14:50:00,
2013-01-06 05:00:00,65.2,57.8,30.00,ESE,107,9.0,17.0,77,0.00,CLR,SCT,0.00,0.0,WeatherDisplay:10.37,2013-01-06 15:00:00,
2013-01-06 05:10:00,65.3,58.3,30.00,ESE,115,8.0,14.0,78,0.00,CLR,SCT,0.00,0.0,WeatherDisplay:10.37,2013-01-06 15:10:00,
2013-01-06 05:20:00,65.2,58.5,30.00,ESE,123,8.0,14.0,79,0.00,CLR,SCT,0.00,0.0,WeatherDisplay:10.37,2013-01-06 15:20:00,
2013-01-06 05:30:00,65.4,59.4,30.00,SE,124,10.0,18.0,81,0.00,CLR,SCT,0.00,0.0,WeatherDisplay:10.37,2013-01-06 15:30:00,
2013-01-06 05:40:00,65.3,60.0,30.00,ESE,121,8.0,14.0,83,0.00,CLR,SCT,0.00,0.0,WeatherDisplay:10.37,2013-01-06 15:40:00,
2013-01-06 05:50:00,65.2,59.6,30.00,ESE,115,7.0,20.0,82,0.00,CLR,SCT,0.00,0.0,WeatherDisplay:10.37,2013-01-06 15:50:00,
2013-01-06 06:00:00,65.2,58.9,29.99,ESE,104,8.0,14.0,80,0.00,CLR,SCT,0.00,0.0,WeatherDisplay:10.37,2013-01-06 16:00:00,
2013-01-06 06:10:00,65.8,56.9,30.00,SE,136,3.0,17.0,73,0.00,CLR,SCT,0.00,0.0,WeatherDisplay:10.37,2013-01-06 16:10:00,
2013-01-06 06:20:00,65.9,58.1,30.00,SE,131,3.0,21.0,76,0.00,CLR,SCT,0.00,0.0,WeatherDisplay:10.37,2013-01-06 16:20:00,
2013-01-06 06:30:00,65.7,58.3,30.00,ESE,118,9.0,14.0,77,0.00,CLR,SCT,0.00,0.0,WeatherDisplay:10.37,2013-01-06 16:30:00,
2013-01-06 06:40:00,66.2,58.0,30.01,East,96,12.0,17.0,75,0.00,CLR,SCT,0.00,0.0,WeatherDisplay:10.37,2013-01-06 16:40:00,
2013-01-06 06:50:00,66.0,59.6,30.01,East,94,6.0,21.0,80,0.00,CLR,SCT,0.00,0.0,WeatherDisplay:10.37,2013-01-06 16:50:00,
2013-01-06 07:00:00,65.2,59.3,30.01,SE,126,9.0,17.0,81,0.00,CLR,SCT,0.00,0.0,WeatherDisplay:10.37,2013-01-06 17:00:00,
2013-01-06 07:10:00,65.7,58.6,30.00,ESE,111,7.0,18.0,78,0.00,FEW,SCT,0.00,4.2,WeatherDisplay:10.37,2013-01-06 17:10:00,
2013-01-06 07:20:00,66.8,58.3,30.00,ESE,122,9.0,22.0,74,0.00,FEW,SCT,0.00,6.3,WeatherDisplay:10.37,2013-01-06 17:20:00,
2013-01-06 07:30:00,67.4,58.1,30.01,ESE,111,7.0,16.0,72,0.00,FEW,SCT,0.00,9.3,WeatherDisplay:10.37,2013-01-06 17:30:00,
2013-01-06 07:40:00,67.2,56.7,30.02,SE,129,2.0,12.0,69,0.00,SCT,SCT,0.00,12.2,WeatherDisplay:10.37,2013-01-06 17:40:00,
2013-01-06 07:50:00,67.0,56.9,30.02,SE,140,5.0,15.0,70,0.00,SCT,SCT,0.00,13.5,WeatherDisplay:10.37,2013-01-06 17:50:00,
2013-01-06 08:00:00,66.7,57.0,30.02,ESE,113,3.0,12.0,71,0.00,SCT,SCT,0.00,15.6,WeatherDisplay:10.37,2013-01-06 18:00:00,
2013-01-06 08:10:00,66.9,56.8,30.03,ESE,122,3.0,10.0,70,0.00,SCT,SCT,0.00,66.9,WeatherDisplay:10.37,2013-01-06 18:10:00,
2013-01-06 08:20:00,67.5,58.9,30.02,ESE,113,8.0,16.0,74,0.00,SCT,SCT,0.00,162.3,WeatherDisplay:10.37,2013-01-06 18:20:00,
2013-01-06 08:30:00,68.3,59.3,30.03,ESE,111,9.0,22.0,73,0.00,SCT,SCT,0.00,246.4,WeatherDisplay:10.37,2013-01-06 18:30:00,
2013-01-06 08:40:00,69.1,60.1,30.03,ESE,120,7.0,21.0,73,0.00,SCT,SCT,0.00,256.5,WeatherDisplay:10.37,2013-01-06 18:40:00,
2013-01-06 08:50:00,70.0,58.1,30.04,SSE,150,7.0,12.0,66,0.00,SCT,SCT,0.00,265.8,WeatherDisplay:10.37,2013-01-06 18:50:00,
2013-01-06 09:00:00,70.7,58.4,30.05,South,180,0.0,10.0,65,0.00,SCT,SCT,0.00,270.8,WeatherDisplay:10.37,2013-01-06 19:00:00,
2013-01-06 09:10:00,71.2,58.9,30.05,SSE,167,2.0,7.0,65,0.00,SCT,SCT,0.00,279.2,WeatherDisplay:10.37,2013-01-06 19:10:00,
2013-01-06 09:20:00,71.8,58.9,30.05,South,179,2.0,8.0,64,0.00,SCT,SCT,0.00,283.4,WeatherDisplay:10.37,2013-01-06 19:20:00,
2013-01-06 09:30:00,72.5,59.6,30.05,SSE,160,2.0,5.0,64,0.00,SCT,SCT,0.00,288.5,WeatherDisplay:10.37,2013-01-06 19:30:00,
2013-01-06 09:40:00,73.0,60.5,30.04,SSE,147,5.0,10.0,65,0.00,SCT,SCT,0.00,294.8,WeatherDisplay:10.37,2013-01-06 19:40:00,
2013-01-06 09:50:00,73.8,61.3,30.04,SE,125,2.0,16.0,65,0.00,SCT,SCT,0.00,298.6,WeatherDisplay:10.37,2013-01-06 19:50:00,
2013-01-06 10:00:00,74.3,61.3,30.04,ESE,117,7.0,20.0,64,0.00,SCT,SCT,0.00,302.8,WeatherDisplay:10.37,2013-01-06 20:00:00,
2013-01-06 10:10:00,73.9,61.4,30.02,SE,126,5.0,15.0,65,0.00,FEW,SCT,0.00,304.0,WeatherDisplay:10.37,2013-01-06 20:10:00,
2013-01-06 10:20:00,74.0,60.6,30.02,ESE,110,14.0,29.0,63,0.00,FEW,SCT,0.00,307.0,WeatherDisplay:10.37,2013-01-06 20:20:00,
2013-01-06 10:30:00,74.7,60.8,30.03,ESE,118,7.0,21.0,62,0.00,FEW,SCT,0.00,305.7,WeatherDisplay:10.37,2013-01-06 20:30:00,
2013-01-06 10:40:00,75.2,61.3,30.03,SSE,163,7.0,16.0,62,0.00,FEW,SCT,0.00,309.1,WeatherDisplay:10.37,2013-01-06 20:40:00,
2013-01-06 11:10:00,76.0,60.2,30.01,East,93,12.0,20.0,58,0.00,FEW,SCT,0.00,311.2,WeatherDisplay:10.37,2013-01-06 21:10:00,
2013-01-06 11:20:00,76.0,60.2,30.01,ESE,111,9.0,20.0,58,0.00,FEW,SCT,0.00,311.2,WeatherDisplay:10.37,2013-01-06 21:20:00,
2013-01-06 11:30:00,76.1,60.7,30.00,ESE,103,12.0,21.0,59,0.00,FEW,SCT,0.00,311.2,WeatherDisplay:10.37,2013-01-06 21:30:00,
2013-01-06 11:40:00,76.3,61.9,30.00,ESE,121,12.0,24.0,61,0.00,FEW,SCT,0.00,312.0,WeatherDisplay:10.37,2013-01-06 21:40:00,
2013-01-06 11:50:00,76.3,61.9,29.99,ESE,116,9.0,24.0,61,0.00,FEW,SCT,0.00,311.2,WeatherDisplay:10.37,2013-01-06 21:50:00,
2013-01-06 12:00:00,76.6,62.6,29.98,ESE,114,3.0,23.0,62,0.00,FEW,SCT,0.00,309.1,WeatherDisplay:10.37,2013-01-06 22:00:00,
2013-01-06 12:10:00,77.2,61.8,29.98,ESE,117,9.0,18.0,59,0.00,FEW,SCT,0.00,309.9,WeatherDisplay:10.37,2013-01-06 22:10:00,
2013-01-06 12:20:00,77.5,62.5,29.97,ESE,114,8.0,20.0,60,0.00,FEW,SCT,0.00,309.1,WeatherDisplay:10.37,2013-01-06 22:20:00,
2013-01-06 12:30:00,76.4,63.3,29.97,ESE,117,6.0,18.0,64,0.00,FEW,SCT,0.00,309.9,WeatherDisplay:10.37,2013-01-06 22:30:00,
2013-01-06 12:40:00,76.4,63.8,29.96,ESE,120,6.0,15.0,65,0.00,FEW,SCT,0.00,305.7,WeatherDisplay:10.37,2013-01-06 22:40:00,
2013-01-06 12:50:00,76.2,63.1,29.95,ESE,117,9.0,22.0,64,0.00,FEW,SCT,0.00,305.7,WeatherDisplay:10.37,2013-01-06 22:50:00,
2013-01-06 13:00:00,76.1,63.5,29.94,ESE,117,6.0,22.0,65,0.00,FEW,SCT,0.00,305.7,WeatherDisplay:10.37,2013-01-06 23:00:00,
2013-01-06 13:10:00,76.6,63.0,29.94,East,100,9.0,20.0,63,0.00,FEW,SCT,0.00,290.6,WeatherDisplay:10.37,2013-01-06 23:10:00,
2013-01-06 13:20:00,76.4,62.8,29.94,ESE,106,12.0,23.0,63,0.00,FEW,SCT,0.00,304.0,WeatherDisplay:10.37,2013-01-06 23:20:00,
2013-01-06 13:30:00,75.5,61.6,29.93,ESE,102,13.0,29.0,62,0.00,FEW,SCT,0.00,287.2,WeatherDisplay:10.37,2013-01-06 23:30:00,
2013-01-06 13:40:00,75.6,62.2,29.93,East,99,7.0,28.0,63,0.00,FEW,SCT,0.00,316.2,WeatherDisplay:10.37,2013-01-06 23:40:00,
2013-01-06 13:50:00,76.5,62.5,29.92,East,98,13.0,22.0,62,0.00,FEW,SCT,0.00,305.7,WeatherDisplay:10.37,2013-01-06 23:50:00,
2013-01-06 14:00:00,75.5,62.5,29.93,East,95,12.0,25.0,64,0.00,FEW,SCT,0.00,304.9,WeatherDisplay:10.37,2013-01-07 00:00:00,
2013-01-06 14:10:00,75.7,62.2,29.93,East,90,14.0,25.0,63,0.00,FEW,SCT,0.00,207.3,WeatherDisplay:10.37,2013-01-07 00:10:00,
2013-01-06 14:20:00,75.1,61.7,29.93,ESE,103,18.0,25.0,63,0.00,FEW,SCT,0.00,323.4,WeatherDisplay:10.37,2013-01-07 00:20:00,
2013-01-06 14:30:00,75.4,62.8,29.93,East,87,12.0,24.0,65,0.00,FEW,SCT,0.00,294.8,WeatherDisplay:10.37,2013-01-07 00:30:00,
2013-01-06 14:40:00,75.1,62.5,29.93,East,93,16.0,28.0,65,0.00,FEW,SCT,0.00,325.5,WeatherDisplay:10.37,2013-01-07 00:40:00,
2013-01-06 14:50:00,73.2,62.8,29.93,East,99,14.0,27.0,70,0.00,FEW,SCT,0.00,291.4,WeatherDisplay:10.37,2013-01-07 00:50:00,
2013-01-06 15:00:00,73.5,61.0,29.93,East,96,16.0,29.0,65,0.00,FEW,SCT,0.00,277.1,WeatherDisplay:10.37,2013-01-07 01:00:00,
2013-01-06 15:10:00,73.7,61.6,29.92,ESE,105,16.0,27.0,66,0.00,SCT,SCT,0.00,275.0,WeatherDisplay:10.37,2013-01-07 01:10:00,
2013-01-06 15:20:00,73.9,61.8,29.93,East,98,15.0,23.0,66,0.00,SCT,SCT,0.00,309.1,WeatherDisplay:10.37,2013-01-07 01:20:00,
2013-01-06 15:30:00,73.5,61.0,29.93,East,97,12.0,22.0,65,0.00,SCT,SCT,0.00,275.0,WeatherDisplay:10.37,2013-01-07 01:30:00,
2013-01-06 15:40:00,74.0,61.9,29.92,East,89,8.0,18.0,66,0.00,SCT,SCT,0.00,255.7,WeatherDisplay:10.37,2013-01-07 01:40:00,
2013-01-06 15:50:00,73.8,61.3,29.92,East,97,13.0,25.0,65,0.00,SCT,SCT,0.00,264.9,WeatherDisplay:10.37,2013-01-07 01:50:00,
2013-01-06 16:00:00,73.3,61.7,29.92,East,90,13.0,21.0,67,0.00,SCT,SCT,0.00,240.1,WeatherDisplay:10.37,2013-01-07 02:00:00,
2013-01-06 16:10:00,72.6,62.7,29.92,East,85,9.0,22.0,71,0.00,SCT,SCT,0.00,242.2,WeatherDisplay:10.37,2013-01-07 02:10:00,
2013-01-06 16:20:00,72.1,61.8,29.91,East,79,15.0,33.0,70,0.00,SCT,SCT,0.00,235.1,WeatherDisplay:10.37,2013-01-07 02:20:00,
2013-01-06 16:30:00,72.0,60.4,29.92,East,101,15.0,26.0,67,0.00,SCT,SCT,0.00,223.7,WeatherDisplay:10.37,2013-01-07 02:30:00,
2013-01-06 16:40:00,71.7,60.2,29.92,East,96,9.0,25.0,67,0.00,SCT,SCT,0.00,30.7,WeatherDisplay:10.37,2013-01-07 02:40:00,
2013-01-06 16:50:00,70.6,60.3,29.93,East,94,8.0,21.0,70,0.00,SCT,SCT,0.00,53.4,WeatherDisplay:10.37,2013-01-07 02:50:00,
2013-01-06 17:00:00,69.8,60.8,29.92,East,101,5.0,18.0,73,0.00,SCT,SCT,0.00,26.5,WeatherDisplay:10.37,2013-01-07 03:00:00,
2013-01-06 17:10:00,69.3,60.6,29.93,East,98,15.0,23.0,74,0.00,SCT,SCT,0.00,27.8,WeatherDisplay:10.37,2013-01-07 03:10:00,
2013-01-06 17:20:00,69.1,60.8,29.92,East,95,13.0,22.0,75,0.00,FEW,SCT,0.00,141.7,WeatherDisplay:10.37,2013-01-07 03:20:00,
2013-01-06 17:30:00,69.2,60.6,29.93,ESE,104,7.0,22.0,74,0.00,FEW,SCT,0.00,119.0,WeatherDisplay:10.37,2013-01-07 03:30:00,
2013-01-06 17:40:00,69.3,59.5,29.93,ESE,116,5.0,18.0,71,0.00,FEW,SCT,0.00,63.5,WeatherDisplay:10.37,2013-01-07 03:40:00,
2013-01-06 17:50:00,69.2,59.8,29.93,East,92,10.0,18.0,72,0.00,FEW,SCT,0.00,37.0,WeatherDisplay:10.37,2013-01-07 03:50:00,
2013-01-06 18:00:00,68.5,59.9,29.93,East,92,12.0,17.0,74,0.00,FEW,SCT,0.00,0.0,WeatherDisplay:10.37,2013-01-07 04:00:00,
2013-01-06 18:10:00,68.7,59.7,29.92,ESE,106,9.0,23.0,73,0.00,FEW,SCT,0.00,0.0,WeatherDisplay:10.37,2013-01-07 04:10:00,
2013-01-06 18:20:00,68.6,60.0,29.93,ESE,112,8.0,18.0,74,0.00,FEW,SCT,0.00,0.0,WeatherDisplay:10.37,2013-01-07 04:20:00,
2013-01-06 18:30:00,67.9,59.7,29.93,East,91,9.0,18.0,75,0.00,FEW,SCT,0.00,0.0,WeatherDisplay:10.37,2013-01-07 04:30:00,
2013-01-06 18:40:00,67.7,59.5,29.94,East,89,12.0,26.0,75,0.00,FEW,SCT,0.00,0.0,WeatherDisplay:10.37,2013-01-07 04:40:00,
2013-01-06 18:50:00,68.4,59.4,29.95,ESE,103,15.0,37.0,73,0.00,FEW,SCT,0.00,0.0,WeatherDisplay:10.37,2013-01-07 04:50:00,
2013-01-06 19:00:00,68.6,60.4,29.94,East,84,10.0,21.0,75,0.00,FEW,SCT,0.00,0.0,WeatherDisplay:10.37,2013-01-07 05:00:00,
2013-01-06 19:10:00,68.0,60.2,29.94,East,100,12.0,28.0,76,0.00,CLR,SCT,0.00,0.0,WeatherDisplay:10.37,2013-01-07 05:10:00,
2013-01-06 19:20:00,68.6,59.9,29.95,East,101,10.0,20.0,74,0.00,CLR,SCT,0.00,0.0,WeatherDisplay:10.37,2013-01-07 05:20:00,
2013-01-06 19:30:00,68.1,59.5,29.95,ESE,113,12.0,21.0,74,0.00,CLR,SCT,0.00,0.0,WeatherDisplay:10.37,2013-01-07 05:30:00,
2013-01-06 19:40:00,68.3,59.7,29.95,ESE,108,13.0,21.0,74,0.00,CLR,SCT,0.00,0.0,WeatherDisplay:10.37,2013-01-07 05:40:00,
2013-01-06 19:50:00,68.2,59.2,29.96,ESE,114,6.0,20.0,73,0.00,CLR,SCT,0.00,0.0,WeatherDisplay:10.37,2013-01-07 05:50:00,
2013-01-06 20:00:00,68.1,59.9,29.96,ESE,120,12.0,21.0,75,0.00,CLR,SCT,0.00,0.0,WeatherDisplay:10.37,2013-01-07 06:00:00,
2013-01-06 20:10:00,67.7,59.1,29.97,ESE,108,6.0,17.0,74,0.00,CLR,SCT,0.00,0.0,WeatherDisplay:10.37,2013-01-07 06:10:00,
2013-01-06 20:20:00,67.6,59.4,29.97,ESE,102,7.0,12.0,75,0.00,CLR,SCT,0.00,0.0,WeatherDisplay:10.37,2013-01-07 06:20:00,
2013-01-06 20:30:00,67.4,59.6,29.97,SE,130,7.0,16.0,76,0.00,CLR,SCT,0.00,0.0,WeatherDisplay:10.37,2013-01-07 06:30:00,
2013-01-06 20:40:00,67.2,59.7,29.97,ESE,114,9.0,18.0,77,0.00,CLR,SCT,0.00,0.0,WeatherDisplay:10.37,2013-01-07 06:40:00,
2013-01-06 20:50:00,67.2,60.1,29.98,ESE,111,5.0,9.0,78,0.00,CLR,SCT,0.00,0.0,WeatherDisplay:10.37,2013-01-07 06:50:00,
2013-01-06 21:00:00,67.3,60.2,29.99,ESE,104,3.0,16.0,78,0.00,CLR,SCT,0.00,0.0,WeatherDisplay:10.37,2013-01-07 07:00:00,
2013-01-06 21:10:00,67.5,60.7,29.98,East,90,9.0,18.0,79,0.00,FEW,SCT,0.00,0.0,WeatherDisplay:10.37,2013-01-07 07:10:00,
2013-01-06 21:20:00,67.6,60.5,29.99,ESE,117,7.0,20.0,78,0.00,FEW,SCT,0.00,0.0,WeatherDisplay:10.37,2013-01-07 07:20:00,
2013-01-06 21:30:00,67.3,61.3,29.99,ESE,115,9.0,20.0,81,0.00,FEW,SCT,0.00,0.0,WeatherDisplay:10.37,2013-01-07 07:30:00,
2013-01-06 21:40:00,66.8,60.8,29.99,SE,124,5.0,13.0,81,0.00,FEW,SCT,0.00,0.0,WeatherDisplay:10.37,2013-01-07 07:40:00,
2013-01-06 21:50:00,66.4,60.8,29.98,East,90,9.0,18.0,82,0.00,FEW,SCT,0.00,0.0,WeatherDisplay:10.37,2013-01-07 07:50:00,
2013-01-06 22:00:00,67.0,60.6,30.00,ESE,111,5.0,14.0,80,0.00,FEW,SCT,0.00,0.0,WeatherDisplay:10.37,2013-01-07 08:00:00,
2013-01-06 22:10:00,67.1,60.7,29.99,East,89,1.0,9.0,80,0.00,CLR,SCT,0.00,0.0,WeatherDisplay:10.37,2013-01-07 08:10:00,
2013-01-06 22:20:00,66.9,60.5,30.00,East,101,10.0,16.0,80,0.00,CLR,SCT,0.00,0.0,WeatherDisplay:10.37,2013-01-07 08:20:00,
2013-01-06 22:30:00,67.3,60.6,30.00,SE,124,2.0,13.0,79,0.00,CLR,SCT,0.00,0.0,WeatherDisplay:10.37,2013-01-07 08:30:00,
2013-01-06 22:40:00,66.8,60.7,30.00,ESE,111,9.0,16.0,81,0.00,CLR,SCT,0.00,0.0,WeatherDisplay:10.37,2013-01-07 08:40:00,
2013-01-06 22:50:00,66.2,60.9,29.99,East,96,7.0,20.0,83,0.00,CLR,SCT,0.00,0.0,WeatherDisplay:10.37,2013-01-07 08:50:00,
2013-01-06 23:00:00,65.9,61.6,30.00,East,92,9.0,20.0,86,0.00,CLR,SCT,0.00,0.0,WeatherDisplay:10.37,2013-01-07 09:00:00,
2013-01-06 23:10:00,65.4,61.4,29.99,East,82,8.0,13.0,87,0.01,RA,SCT,0.01,0.0,WeatherDisplay:10.37,2013-01-07 09:10:00,
2013-01-06 23:20:00,65.1,60.8,29.99,ENE,75,9.0,17.0,86,0.00,SCT,SCT,0.01,0.0,WeatherDisplay:10.37,2013-01-07 09:20:00,
2013-01-06 23:30:00,65.0,60.7,29.98,East,86,9.0,15.0,86,0.00,SCT,SCT,0.01,0.0,WeatherDisplay:10.37,2013-01-07 09:30:00,
2013-01-06 23:40:00,65.3,60.7,29.98,East,87,6.0,12.0,85,0.00,SCT,SCT,0.01,0.0,WeatherDisplay:10.37,2013-01-07 09:40:00,
2013-01-06 23:50:00,65.9,61.3,29.98,East,85,7.0,21.0,85,0.00,SCT,SCT,0.01,0.0,WeatherDisplay:10.37,2013-01-07 09:50:00,